Hourly Data Report for June 19, 2021

TOBERMORY RCS
ONTARIO
Current Station Operator: ECCC - MSC

45°14'00.000" N
81°38'00.000" W
213.50 m
6128330
71767
TTR

Download Data

Hourly Data (June 2021)
Hourly Data Report for June 19, 2021
TIME
LST
Temp Definition
°C
Dew Point Definition
°C
Rel Hum Definition
%
Precip. Amount Definition
mm

Wind Dir Definition
10's deg

Wind Spd Definition
km/h
Visibility Definition
km
Stn Press Definition
kPa
Hmdx Definition


Wind Chill Definition


Weather Definition


00:00 12.6 10.8 89 0.0 26 9   98.08     LegendNANA
01:00 13.0 11.0 87 0.0 26 8   98.09     LegendNANA
02:00 12.8 10.9 88 0.0 25 7   98.11     LegendNANA
03:00 13.3 10.6 84 0.0 28 12   98.06     LegendNANA
04:00 12.2 10.2 87 0.0 26 8   98.15     LegendNANA
05:00 12.6 10.6 88 0.0 28 9   98.17     LegendNANA
06:00 14.0 11.2 83 0.0 28 16   98.20     LegendNANA
07:00 14.6 11.4 81 0.0 29 16   98.22     LegendNANA
08:00 16.3 12.0 75 0.0 30 13   98.25     LegendNANA
09:00 17.0 12.2 73 0.0 29 14   98.25     LegendNANA
10:00 17.8 11.9 68 0.0 29 15   98.24     LegendNANA
11:00 17.7 11.3 66 0.0 31 14   98.23     LegendNANA
12:00 19.2 11.6 61 0.0 33 13   98.25     LegendNANA
13:00 20.0 10.2 53 0.0 35 13   98.20     LegendNANA
14:00 19.0 10.6 58 0.0 28 19   98.26     LegendNANA
15:00 19.0 10.1 56 0.0 27 15   98.24     LegendNANA
16:00 18.8 9.9 56 0.0 28 13   98.19     LegendNANA
17:00 18.4 10.1 58 0.0 29 14   98.20     LegendNANA
18:00 17.7 9.8 60 0.0 29 13   98.22     LegendNANA
19:00 17.4 10.1 62 0.0 29 7   98.20     LegendNANA
20:00 15.3 9.8 70 0.0 27 6   98.21     LegendNANA
21:00 13.0 10.1 83 0.0 26 7   98.27     LegendNANA
22:00 11.6 10.0 90 0.0 23 3   98.28     LegendNANA
23:00 11.1 9.9 92 0.0 27 4   98.27     LegendNANA

Notes on Data Quality.

Legend

  • E = Estimated
  • M = Missing
  • NA = Not Available*
  • [empty] = Indicates an unobserved value
Date modified: